Regional Weather Roundup
Issued by NWS Newport/Morehead, NC

Current Version | Previous Version | Text Only | Print | Product List | Glossary On
Versions: 1 2 3 4 5 6 7 8 9 10 11 12 13 14 15 16 17 18 19 20 21 22 23 24 25 26 27 28 29 30 31 32 33 34 35 36 37 38 39 40 41 42 43 44 45 46 47 48 49 50
235
ASUS42 KMHX 261525
RWRMHX
WEATHER ROUNDUP FOR EASTERN NORTH CAROLINA
NATIONAL WEATHER SERVICE NEWPORT/MOREHEAD CITY NC
1100 AM EDT MON SEP 26 2016

NOTE: "FAIR" INDICATES FEW OR NO CLOUDS BELOW 12,000 FEET
WITH NO SIGNIFICANT WEATHER AND/OR OBSTRUCTIONS TO VISIBILITY

NCZ015>017-031-032-045>047-102-103-261600-
NORTH COAST

CITY           SKY/WX    TMP DP  RH WIND       PRES   REMARKS
EDENTON        NOT AVBL
ELIZABETH CITY SUNNY     74  55  51 E10       30.15S
KITTY HAWK     MOSUNNY   77  65  67 CALM      30.14
MANTEO         SUNNY     74  62  65 E8        30.16S

$$

NCZ045>047-081-094-103-104-261600-
CENTRAL COAST

CITY           SKY/WX    TMP DP  RH WIND       PRES   REMARKS
FRISCO         SUNNY     77  64  64 NE9       30.14

$$

NCZ095-097-098-100-101-261600-
SOUTHERN COAST

CITY           SKY/WX    TMP DP  RH WIND       PRES   REMARKS
BEAUFORT       SUNNY     78  64  61 E8        30.13R
CEDAR ISLAND   NOT AVBL
JACKSONVILLE   MOSUNNY   77  62  59 E5        30.13R
PINEY ISLAND   SUNNY    N/A N/A N/A NE9       30.13S
WILMINGTON     MOSUNNY   78  66  66 NE10      30.13


$$

NCZ011>013-027>030-043-044-078>080-089-090>093-098-261600-
COASTAL PLAIN

CITY           SKY/WX    TMP DP  RH WIND       PRES   REMARKS
AHOSKIE        SUNNY     69  60  72 CALM      30.16R
CLINTON        MOSUNNY   72  62  71 E3        30.15S
ELIZABETHTOWN  MOSUNNY   75  63  67 E6        30.13S
GOLDSBORO      CLOUDY    72  64  75 E7        30.13R
GREENVILLE     CLOUDY    72  61  68 CALM      30.17R
HAVELOCK       SUNNY     77  63  61 E9        30.14S
KENANSVILLE    CLOUDY    73  63  68 E6        30.14F
KINSTON        PTSUNNY   73  59  60 E6        30.16R
NEW BERN       SUNNY     75  62  64 SE5       30.16R
RICHLANDS      MOSUNNY   76  63  64 NE7       30.14R
ROCKY MOUNT    CLOUDY    70  60  70 SE5       30.16R
WASHINGTON     PTSUNNY   72  62  71 SE7       30.15F
WHITEVILLE     NOT AVBL

$$

AMZ130-135-150-152-154-156-158-170-250-252-270-ANZ085-086-088-633-658-670-261600-
MARINE OBSERVATIONS

STATION/POSITION TIME  TEMP    WIND        PRES    WAVE   SWELL
                       AIR SEA DIR/SP/G            HT/PER HT/PER
                 (UTC) (F)     (DEG/KT/KT) (MB)    (FT/S) (FT/S)
CHESAPEAKE LIGHT NOT AVBL
64 E VA BEACH    1450   72 74  100/  8/ 10 1021.1    3/ 9   3/ 9
DUCK             1500   72 76   90/ 10/ 12 1020.5
2 E DUCK         1441      76                N/A     3/ 9
OREGON INLET     1500   73 75   30/  7/ 12 1020.6
13E OREGON INLT  1500      76                N/A     4/ 9   3/ 9
HATTERAS CG      1500   73 76   20/  8/ 11 1020.2
DIAMOND BUOY     1450   76 77   50/ 10/ 12 1019.9    3/ 9   3/ 9
CAPE LOOKOUT     1500   75      40/ 13/ 15 1020.0
BEAUFORT LAB     1500   75 76   50/  7/ 11 1019.7
30 SE NEW RVR IN 1408   77 81   70/ 14/ 19 1019.6
30 SE NEW RVR IN 1455      81                N/A     4/ 4
27 SE WRIGHTSVLE 1408   78 81   70/ 14/ 19 1019.5
5 SE WRIGHTSVLE  1408   77 80   80/ 14/ 19 1020.6
225 S CAPE HAT   1450   79 84   70/ 17/ 21 1017.5    5/ 8   3/ 8
41 SE CHARLESTON 1450   76 82  160/ 16/ 17 1017.9    4/ 6   2/ 8

$$




USA.gov is the U.S. government's official web portal to all federal, state and local government web resources and services.